Retour au catalogue

STARLINK-34550

ActifCommunicationsVLEO
NORAD 64683·PAYLOAD·🇺🇸 United States

Lancé Jun 28, 2025 depuis Cape Canaveral Space Force Station

Loading…

Prochains Passages (prochaines 24 heures)

TLE

FraisSource: CelesTrak SupGP

Époque: Sep 15, 2026, 03:44 UTC

1 64683C 25139V   26258.15604167  .00045624  00000+0  13479-2 0  2584
2 64683  53.1593 322.7245 0001292  92.1979 220.9968 15.34369556    15

Suivez STARLINK-34550 en temps réel avec AllMySat

Download on the App Store